Location: Beuerbach
(48.1459°N, 10.9174°E)
Time: 20:12:42
(UTC+00:00)

SL-16 R/B - Pass Details

Date: 09 August 2024
Orbit: 842 x 845 km, 71.0° (Epoch: 07 September)

Event Time Altitude Azimuth Distance (km) Brightness Sun altitude
Exits shadow 23:15:09 52° 105° (ESE) 1,043 2.5 -26.4°
Drops below altitude 10° 23:20:30 10° 36° (NE) 2,475 5.3 -26.4°
Sets 23:23:00 0° 32° (NNE) 3,414 6.2 -26.4°
